Regional Weather Roundup
Issued by NWS Burlington, VT

Current Version | Previous Version | Text Only | Print | Product List | Glossary On
Versions: 1 2 3 4 5 6 7 8 9 10 11 12 13 14 15 16 17 18 19 20 21 22 23 24 25 26 27 28 29 30 31 32 33 34 35 36 37 38 39 40 41 42 43 44 45 46 47 48 49 50
000 ASUS41 KBTV 062310 RWRBTV VERMONT REGIONAL WEATHER ROUNDUP NATIONAL WEATHER SERVICE BURLINGTON VT 600 PM EST SAT FEB 06 2016 NOTE: "FAIR" INDICATES FEW OR NO CLOUDS BELOW 12,000 FEET WITH NO SIGNIFICANT WEATHER AND/OR OBSTRUCTIONS TO VISIBILITY. * THESE REPORTS ARE NOT UNDER NWS QUALITY CONTROL AND/OR DO NOT REPORT WEATHER SUCH AS PRECIPITATION AND FOG. VTZ001>019-070000- _____VERMONT_____ CITY SKY/WX TMP DP RH WIND PRES REMARKS BURLINGTON CLOUDY 37 21 52 SW8 30.13R WCI 31 MONTPELIER CLOUDY 32 19 58 SW10 30.14R WCI 24 MORRISVILLE CLOUDY 35 21 56 SW10 30.12S WCI 27 ST. JOHNSBURY* N/A 36 18 48 MISG 30.10S LYNDONVILLE* CLOUDY 32 21 63 S8G16 30.11S WCI 25 RUTLAND* CLOUDY 36 18 48 S3 30.16R SPRINGFIELD CLOUDY 36 19 50 SW3 30.18R HIGHGATE* CLOUDY 34 25 68 SW6 30.10S WCI 29 NEWPORT* CLOUDY 32 23 71 S13 30.09S WCI 22 BENNINGTON CLOUDY 36 17 46 CALM 30.17R _____LAKE CHAMPLAIN_____ CITY SKY/WX TMP DP RH WIND PRES REMARKS $$ NYZ007-026>031-035-052-083-070000- _____NORTHERN NEW YORK_____ CITY SKY/WX TMP DP RH WIND PRES REMARKS PLATTSBURGH MOCLDY 36 22 56 SW6 30.11S WCI 31 SARANAC LAKE CLOUDY 28 23 81 SW10 30.04S WCI 19 MASSENA CLOUDY 33 24 69 SW12 30.09S WCI 24 OGDENSBURG* PTCLDY 34 28 80 SW10G16 30.09S WCI 26 POTSDAM* CLOUDY 34 28 80 SW15G23 30.09R WCI 24 WATERTOWN CLOUDY 35 27 72 SW14G23 30.14S WCI 26 ALBANY MOCLDY 40 17 39 VRB3 30.20R GLENS FALLS CLEAR 37 18 46 SW5 30.18R $$ NHZ002-005-011-070000- _____NEW HAMPSHIRE_____ CITY SKY/WX TMP DP RH WIND PRES REMARKS LEBANON CLOUDY 37 21 52 S7 30.15S WCI 32 MT WASHINGTON SNOW 9 9 100 SW39 N/A VSB 0 WCI -17 PLYMOUTH CLOUDY 36 20 53 SW3 30.15R WHITEFIELD PTCLDY 34 19 54 VRB7 30.10S WCI 28 $$ _____REGIONAL QUEBEC LOCATIONS_____ CITY SKY/WX TMP DP RH WIND PRES REMARKS MONTREAL MOCLDY 30 28 93 S9 30.07S WCI 22 QUEBEC CITY SNOWSHWR 23 19 86 VRB3 30.03F SHERBROOKE CLOUDY 30 27 86 SW7 30.05S WCI 23 _____REGIONAL ONTARIO LOCATIONS_____ CITY SKY/WX TMP DP RH WIND PRES REMARKS OTTAWA MOCLDY 34 23 64 SW14G23 30.04R WCI 24 ______KEY______ VSB - VISIBILITY IN MILES WCI - WIND CHILL INDEX HX - HEAT INDEX $$ NNNN

USA.gov is the U.S. government's official web portal to all federal, state and local government web resources and services.